STARLINK-34109, 63807

Orbit data source: Space-Track

STARLINK-34109, 63807 is a payload satellite owned by SpaceX/Seattle (US) in LEO that was launched on Sun, 04 May 2025 UTC via an FALCON 9 launch vehicle from the Air Force Eastern Test Range (AFETR). Payload-class satellites include a variety of spacecraft equipped with specific instruments for various scientific and technological missions. These include communications satellites like Starlink; space stations such as the ISS; scientific satellites like the Hubble; Earth observation satellites from companies like Planet Labs, Umbra, and HawkEye 360; GPS; miniature CubeSats for education and research; and military/defense satellites.

Loading next visibility...
Identifier
63807, 2025-092D
Orbit
LEO
Country
Flag of USUS
Related business
Manufacturer
SpaceX/Seattle
Mission
Operational Commercial Communications
Bus & Motor
STARLINK V2MO, Unknown motor
Mass
575 kg wet, ~530 kg dry
Launch date (UTC)
2025-05-04 (1 year ago)
Launch vehicle
FALCON 9
Launch site
Air Force Eastern Test Range (AFETR)
Object type
Payload
Rocket body
Debris
Shape & HBR
Box + 1 Pan, 17.7 m
Radar Cross Section
41.120 m², Large (>1 m²)

Expand to show TLE details & history
Last TLE update: 21 hours ago

TLE from 21 hours ago
0 STARLINK-34109
1 63807U 25092D   26266.98333482  .00012442  00000-0  46077-3 0  9994
2 63807  42.9952 132.4624 0000543 284.5265  75.5526 15.27586949 78947
Epoch: 2026-09-23T23:36Z
TLE epoch observation values (Epoch: 2026-09-23T23:36:00.128Z)
Latitude
-0.00004°
Longitude
135.63519°
Altitude
482.71 km
Speed
7.626 km/s
True Right ascension
08h 49m 50s
True Declination
0° 00' 00"
Sunlit
Object was in daylight at epoch
Visualization orbit readout
Latitude
Unknown
Longitude
Unknown
Altitude
Unknown
Speed
Unknown
Apparent Right ascension
Unknown
Apparent Declination
Unknown
Sunlit
N/A
Visualization observer readout
Local Sidereal Time
14:18:26
Azimuth
Unknown
Elevation
Unknown
Doppler factor
Unknown
Orbital elements
Apogee altitude
485.347 km
Perigee altitude
484.602 km
Semi-major axis
6,863.111 km
Eccentricity
0.00005
Inclination
42.9952°
RAAN
132.4624°
Arg. of periapsis
284.5265°
True anomaly
75.55863°
Mean anomaly
75.5526°
Eccentric anomaly
75.55561°
Mean motion
3.81735 °/min
Orbital period
94.31 mins
BSTAR
0.00046077
Loading maneuver chart data...
Computing Atmospheric mass density...
Loading historical data...
Loading historical data...
Loading historical data...
Loading historical data...
Loading historical data...
Loading historical data...
Loading historical data...

Documentation

Showing up to 5 results
|